Time,TemperatureF,DewpointF,PressureIn,WindDirection,WindDirectionDegrees,WindSpeedMPH,WindSpeedGustMPH,Humidity,HourlyPrecipIn,Conditions,Clouds,dailyrainin,SoftwareType,DateUTC
2013-02-02 00:02:00,45.0,41.0,30.15,SW,233,5.0,5.0,87,0.00,,,0.00,,2013-02-02 06:02:00,
2013-02-02 00:21:00,45.0,42.0,30.14,SW,219,5.0,5.0,90,0.00,,,0.00,,2013-02-02 06:21:00,
2013-02-02 00:31:00,46.0,44.0,30.14,WSW,238,4.0,6.0,91,0.00,,,0.00,,2013-02-02 06:31:00,
2013-02-02 00:52:00,45.0,43.0,30.14,SW,232,4.0,4.0,91,0.00,,,0.00,,2013-02-02 06:52:00,
2013-02-02 01:02:00,45.0,43.0,30.14,WSW,239,3.0,3.0,93,0.00,,,0.00,,2013-02-02 07:02:00,
2013-02-02 01:11:00,45.0,44.0,30.14,WSW,248,5.0,5.0,95,0.00,,,0.00,,2013-02-02 07:11:00,
2013-02-02 01:21:00,45.0,44.0,30.14,WSW,248,5.0,5.0,95,0.00,,,0.00,,2013-02-02 07:21:00,
2013-02-02 01:31:00,45.0,44.0,30.14,WSW,238,5.0,5.0,95,0.00,,,0.00,,2013-02-02 07:31:00,
2013-02-02 01:52:00,46.0,45.0,30.14,WSW,252,5.0,5.0,95,0.00,,,0.00,,2013-02-02 07:52:00,
2013-02-02 02:01:00,46.0,45.0,30.15,West,271,3.0,3.0,95,0.00,,,0.00,,2013-02-02 08:01:00,
2013-02-02 02:21:00,47.0,45.0,30.15,West,259,0.0,0.0,94,0.00,,,0.00,,2013-02-02 08:21:00,
2013-02-02 02:31:00,46.0,45.0,30.15,West,259,0.0,0.0,95,0.00,,,0.00,,2013-02-02 08:31:00,
2013-02-02 02:53:00,46.0,44.0,30.15,West,259,0.0,0.0,94,0.00,,,0.00,,2013-02-02 08:53:00,
2013-02-02 03:01:00,44.0,42.0,30.15,West,259,0.0,0.0,94,0.00,,,0.00,,2013-02-02 09:01:00,
2013-02-02 03:22:00,42.0,41.0,30.15,West,259,0.0,0.0,96,0.00,,,0.00,,2013-02-02 09:22:00,
2013-02-02 03:31:00,42.0,41.0,30.15,WSW,252,0.0,0.0,97,0.00,,,0.00,,2013-02-02 09:31:00,
2013-02-02 03:52:00,42.0,41.0,30.16,SW,233,0.0,0.0,97,0.00,,,0.00,,2013-02-02 09:52:00,
2013-02-02 04:01:00,41.0,40.0,30.16,NNE,27,0.0,0.0,98,0.00,,,0.00,,2013-02-02 10:01:00,
2013-02-02 04:11:00,42.0,42.0,30.16,NNE,27,0.0,0.0,99,0.00,,,0.00,,2013-02-02 10:11:00,
2013-02-02 04:21:00,42.0,42.0,30.16,NNE,27,0.0,0.0,99,0.00,,,0.00,,2013-02-02 10:21:00,
2013-02-02 04:31:00,42.0,42.0,30.16,SW,235,3.0,3.0,100,0.00,,,0.00,,2013-02-02 10:31:00,
2013-02-02 04:52:00,41.0,41.0,30.16,South,179,0.0,0.0,100,0.00,,,0.00,,2013-02-02 10:52:00,
2013-02-02 05:01:00,41.0,41.0,30.17,WSW,250,0.0,0.0,100,0.00,,,0.00,,2013-02-02 11:01:00,
2013-02-02 05:11:00,41.0,41.0,30.16,WSW,250,0.0,0.0,100,0.00,,,0.00,,2013-02-02 11:11:00,
2013-02-02 05:21:00,41.0,41.0,30.16,WSW,250,0.0,0.0,100,0.00,,,0.00,,2013-02-02 11:21:00,
2013-02-02 05:32:00,41.0,41.0,30.17,WSW,250,0.0,0.0,100,0.00,,,0.00,,2013-02-02 11:32:00,
2013-02-02 05:52:00,41.0,41.0,30.17,WSW,250,0.0,0.0,100,0.00,,,0.00,,2013-02-02 11:52:00,
2013-02-02 06:01:00,41.0,41.0,30.18,WSW,250,0.0,0.0,100,0.00,,,0.00,,2013-02-02 12:01:00,
2013-02-02 06:22:00,39.0,39.0,30.19,WSW,250,0.0,0.0,100,0.00,,,0.00,,2013-02-02 12:22:00,
2013-02-02 06:32:00,40.0,40.0,30.20,WSW,250,0.0,0.0,100,0.00,,,0.00,,2013-02-02 12:32:00,
2013-02-02 06:52:00,40.0,40.0,30.20,West,270,3.0,3.0,100,0.00,,,0.00,,2013-02-02 12:52:00,
2013-02-02 07:02:00,40.0,40.0,30.20,WSW,253,3.0,3.0,100,0.00,,,0.00,,2013-02-02 13:02:00,
2013-02-02 07:11:00,40.0,40.0,30.20,WSW,253,3.0,3.0,100,0.00,,,0.00,,2013-02-02 13:11:00,
2013-02-02 07:21:00,39.0,39.0,30.20,SW,233,3.0,3.0,100,0.00,,,0.00,,2013-02-02 13:21:00,
2013-02-02 07:32:00,39.0,39.0,30.21,SW,215,4.0,4.0,100,0.00,,,0.00,,2013-02-02 13:32:00,
2013-02-02 07:52:00,39.0,39.0,30.21,SW,225,3.0,3.0,100,0.00,,,0.00,,2013-02-02 13:52:00,
2013-02-02 08:02:00,39.0,39.0,30.22,WSW,252,4.0,4.0,100,0.00,,,0.00,,2013-02-02 14:02:00,
2013-02-02 08:11:00,39.0,39.0,30.22,WSW,252,4.0,4.0,100,0.00,,,0.00,,2013-02-02 14:11:00,
2013-02-02 08:22:00,42.0,42.0,30.22,West,276,3.0,3.0,100,0.00,,,0.00,,2013-02-02 14:22:00,
2013-02-02 08:32:00,42.0,42.0,30.23,West,266,2.0,0.0,100,0.00,,,0.00,,2013-02-02 14:32:00,
2013-02-02 08:42:00,42.0,42.0,30.23,West,266,2.0,0.0,100,0.00,,,0.00,,2013-02-02 14:42:00,
2013-02-02 08:52:00,42.0,42.0,30.23,West,266,2.0,0.0,100,0.00,,,0.00,,2013-02-02 14:52:00,
2013-02-02 09:03:00,46.0,46.0,30.25,WNW,293,3.0,0.0,100,0.00,,,0.00,,2013-02-02 15:03:00,
2013-02-02 09:12:00,46.0,46.0,30.25,WNW,293,3.0,0.0,100,0.00,,,0.00,,2013-02-02 15:12:00,
2013-02-02 09:22:00,48.0,48.0,30.26,NW,307,3.0,3.0,100,0.00,,,0.00,,2013-02-02 15:22:00,
2013-02-02 09:32:00,50.0,50.0,30.26,NW,323,5.0,5.0,100,0.00,,,0.00,,2013-02-02 15:32:00,
2013-02-02 09:42:00,50.0,50.0,30.26,NW,323,5.0,5.0,100,0.00,,,0.00,,2013-02-02 15:42:00,
2013-02-02 09:52:00,50.0,50.0,30.26,WNW,295,4.0,4.0,100,0.00,,,0.00,,2013-02-02 15:52:00,
2013-02-02 10:02:00,51.0,51.0,30.26,WNW,302,5.0,7.0,100,0.00,,,0.00,,2013-02-02 16:02:00,
2013-02-02 10:11:00,51.0,51.0,30.26,WNW,302,5.0,7.0,100,0.00,,,0.00,,2013-02-02 16:11:00,
2013-02-02 10:22:00,51.0,51.0,30.27,NW,309,4.0,5.0,100,0.00,,,0.00,,2013-02-02 16:22:00,
2013-02-02 10:32:00,52.0,52.0,30.27,NW,322,5.0,7.0,100,0.00,,,0.00,,2013-02-02 16:32:00,
2013-02-02 10:42:00,52.0,52.0,30.27,NW,322,5.0,7.0,100,0.00,,,0.00,,2013-02-02 16:42:00,
2013-02-02 10:52:00,52.0,52.0,30.28,WNW,295,5.0,6.0,100,0.00,,,0.00,,2013-02-02 16:52:00,
2013-02-02 11:02:00,53.0,53.0,30.27,NNW,335,13.0,13.0,100,0.00,,,0.00,,2013-02-02 17:02:00,
2013-02-02 11:11:00,53.0,53.0,30.27,NNW,335,13.0,13.0,100,0.00,,,0.00,,2013-02-02 17:11:00,
2013-02-02 11:22:00,53.0,53.0,30.28,North,359,10.0,10.0,100,0.00,,,0.00,,2013-02-02 17:22:00,
2013-02-02 11:32:00,54.0,54.0,30.28,NNW,345,10.0,13.0,100,0.00,,,0.00,,2013-02-02 17:32:00,
2013-02-02 11:52:00,55.0,55.0,30.28,NNW,328,10.0,10.0,100,0.00,,,0.00,,2013-02-02 17:52:00,
2013-02-02 12:02:00,55.0,55.0,30.28,NNE,24,14.0,14.0,99,0.00,,,0.00,,2013-02-02 18:02:00,
2013-02-02 12:22:00,54.0,54.0,30.28,WNW,295,8.0,12.0,99,0.00,,,0.00,,2013-02-02 18:22:00,
2013-02-02 12:31:00,55.0,55.0,30.28,NNW,336,11.0,11.0,99,0.00,,,0.00,,2013-02-02 18:31:00,
2013-02-02 12:52:00,57.0,55.0,30.27,NNW,336,14.0,14.0,94,0.00,,,0.00,,2013-02-02 18:52:00,
2013-02-02 13:02:00,59.0,57.0,30.26,North,353,12.0,14.0,94,0.00,,,0.00,,2013-02-02 19:02:00,
2013-02-02 13:12:00,60.0,55.0,30.26,North,8,12.0,12.0,83,0.00,,,0.00,,2013-02-02 19:12:00,
2013-02-02 13:21:00,60.0,55.0,30.26,North,8,12.0,12.0,83,0.00,,,0.00,,2013-02-02 19:21:00,
2013-02-02 13:32:00,60.0,56.0,30.25,NE,45,11.0,11.0,87,0.00,,,0.00,,2013-02-02 19:32:00,
2013-02-02 13:52:00,61.0,57.0,30.25,NNE,14,10.0,14.0,88,0.00,,,0.00,,2013-02-02 19:52:00,
2013-02-02 14:01:00,62.0,56.0,30.24,NNE,14,14.0,15.0,82,0.00,,,0.00,,2013-02-02 20:01:00,
2013-02-02 14:21:00,61.0,58.0,30.24,NNE,14,12.0,16.0,90,0.00,,,0.00,,2013-02-02 20:21:00,
2013-02-02 14:32:00,62.0,57.0,30.24,NNE,27,10.0,10.0,85,0.00,,,0.00,,2013-02-02 20:32:00,
2013-02-02 14:52:00,62.0,57.0,30.24,NNE,24,9.0,12.0,84,0.00,,,0.00,,2013-02-02 20:52:00,
2013-02-02 15:02:00,63.0,58.0,30.24,NNE,23,8.0,9.0,83,0.00,,,0.00,,2013-02-02 21:02:00,
2013-02-02 15:21:00,65.0,57.0,30.23,NE,39,14.0,14.0,76,0.00,,,0.00,,2013-02-02 21:21:00,
2013-02-02 15:32:00,65.0,53.0,30.23,North,10,12.0,12.0,66,0.00,,,0.00,,2013-02-02 21:32:00,
2013-02-02 15:52:00,65.0,49.0,30.23,NNW,343,10.0,10.0,56,0.00,,,0.00,,2013-02-02 21:52:00,
2013-02-02 16:02:00,65.0,49.0,30.23,NNE,21,13.0,13.0,56,0.00,,,0.00,,2013-02-02 22:02:00,
2013-02-02 16:21:00,65.0,45.0,30.23,NNW,335,10.0,12.0,48,0.00,,,0.00,,2013-02-02 22:21:00,
2013-02-02 16:32:00,66.0,40.0,30.23,North,6,12.0,12.0,39,0.00,,,0.00,,2013-02-02 22:32:00,
2013-02-02 16:42:00,66.0,40.0,30.23,North,6,12.0,12.0,39,0.00,,,0.00,,2013-02-02 22:42:00,
2013-02-02 16:52:00,65.0,38.0,30.24,NNE,31,14.0,16.0,37,0.00,,,0.00,,2013-02-02 22:52:00,
2013-02-02 17:01:00,64.0,38.0,30.24,NE,52,13.0,13.0,38,0.00,,,0.00,,2013-02-02 23:01:00,
2013-02-02 17:11:00,64.0,38.0,30.24,NE,52,13.0,13.0,38,0.00,,,0.00,,2013-02-02 23:11:00,
2013-02-02 17:21:00,64.0,38.0,30.24,NNE,32,11.0,13.0,38,0.00,,,0.00,,2013-02-02 23:21:00,
2013-02-02 17:32:00,63.0,38.0,30.25,NNE,32,11.0,11.0,39,0.00,,,0.00,,2013-02-02 23:32:00,
2013-02-02 17:42:00,63.0,38.0,30.25,NNE,32,11.0,11.0,39,0.00,,,0.00,,2013-02-02 23:42:00,
2013-02-02 17:52:00,62.0,37.0,30.25,NE,35,9.0,9.0,40,0.00,,,0.00,,2013-02-02 23:52:00,
2013-02-02 18:01:00,61.0,37.0,30.26,NNE,20,11.0,11.0,41,0.00,,,0.00,,2013-02-03 00:01:00,
2013-02-02 18:11:00,61.0,37.0,30.26,NNE,20,11.0,11.0,41,0.00,,,0.00,,2013-02-03 00:11:00,
2013-02-02 18:22:00,60.0,37.0,30.26,NE,37,8.0,8.0,43,0.00,,,0.00,,2013-02-03 00:22:00,
2013-02-02 18:31:00,59.0,38.0,30.26,NNE,27,6.0,7.0,45,0.00,,,0.00,,2013-02-03 00:31:00,
2013-02-02 18:41:00,59.0,38.0,30.26,NNE,27,6.0,7.0,45,0.00,,,0.00,,2013-02-03 00:41:00,
2013-02-02 18:52:00,57.0,38.0,30.27,NE,48,5.0,5.0,48,0.00,,,0.00,,2013-02-03 00:52:00,
2013-02-02 19:02:00,56.0,37.0,30.28,NNE,28,4.0,4.0,49,0.00,,,0.00,,2013-02-03 01:02:00,
2013-02-02 19:11:00,55.0,37.0,30.28,NE,49,5.0,5.0,51,0.00,,,0.00,,2013-02-03 01:11:00,
2013-02-02 19:21:00,55.0,37.0,30.28,NE,49,5.0,5.0,51,0.00,,,0.00,,2013-02-03 01:21:00,
2013-02-02 19:32:00,54.0,37.0,30.29,North,11,4.0,5.0,52,0.00,,,0.00,,2013-02-03 01:32:00,
2013-02-02 19:42:00,54.0,37.0,30.29,North,11,4.0,5.0,52,0.00,,,0.00,,2013-02-03 01:42:00,
2013-02-02 19:52:00,52.0,35.0,30.30,North,8,4.0,4.0,53,0.00,,,0.00,,2013-02-03 01:52:00,
2013-02-02 20:01:00,51.0,35.0,30.31,North,10,4.0,4.0,55,0.00,,,0.00,,2013-02-03 02:01:00,
2013-02-02 20:11:00,51.0,35.0,30.31,North,10,4.0,4.0,55,0.00,,,0.00,,2013-02-03 02:11:00,
2013-02-02 20:21:00,51.0,35.0,30.32,NNE,13,4.0,4.0,55,0.00,,,0.00,,2013-02-03 02:21:00,
2013-02-02 20:32:00,51.0,35.0,30.32,North,7,5.0,5.0,55,0.00,,,0.00,,2013-02-03 02:32:00,
2013-02-02 20:41:00,51.0,35.0,30.32,North,7,5.0,5.0,55,0.00,,,0.00,,2013-02-03 02:41:00,
2013-02-02 20:52:00,50.0,35.0,30.32,NNE,14,5.0,5.0,56,0.00,,,0.00,,2013-02-03 02:52:00,
2013-02-02 21:02:00,49.0,34.0,30.32,NNE,17,5.0,5.0,57,0.00,,,0.00,,2013-02-03 03:02:00,
2013-02-02 21:11:00,49.0,35.0,30.32,NNE,13,5.0,6.0,58,0.00,,,0.00,,2013-02-03 03:11:00,
2013-02-02 21:21:00,49.0,35.0,30.32,NNE,13,5.0,6.0,58,0.00,,,0.00,,2013-02-03 03:21:00,
2013-02-02 21:31:00,48.0,35.0,30.33,North,10,4.0,4.0,60,0.00,,,0.00,,2013-02-03 03:31:00,
2013-02-02 21:41:00,48.0,35.0,30.33,North,10,4.0,4.0,60,0.00,,,0.00,,2013-02-03 03:41:00,
2013-02-02 21:52:00,47.0,34.0,30.33,NNE,14,5.0,5.0,61,0.00,,,0.00,,2013-02-03 03:52:00,
2013-02-02 22:01:00,47.0,34.0,30.34,NNE,30,4.0,4.0,61,0.00,,,0.00,,2013-02-03 04:01:00,
2013-02-02 22:11:00,46.0,34.0,30.34,NE,52,2.0,3.0,62,0.00,,,0.00,,2013-02-03 04:11:00,
2013-02-02 22:21:00,46.0,34.0,30.34,NE,52,2.0,3.0,62,0.00,,,0.00,,2013-02-03 04:21:00,
2013-02-02 22:31:00,45.0,33.0,30.34,NNE,20,2.0,2.0,63,0.00,,,0.00,,2013-02-03 04:31:00,
2013-02-02 22:42:00,45.0,33.0,30.34,NNE,20,2.0,2.0,63,0.00,,,0.00,,2013-02-03 04:42:00,
2013-02-02 22:52:00,44.0,33.0,30.34,North,354,3.0,3.0,64,0.00,,,0.00,,2013-02-03 04:52:00,
2013-02-02 23:03:00,43.0,32.0,30.34,North,350,3.0,3.0,66,0.00,,,0.00,,2013-02-03 05:03:00,
2013-02-02 23:11:00,43.0,32.0,30.34,North,350,3.0,3.0,66,0.00,,,0.00,,2013-02-03 05:11:00,
2013-02-02 23:22:00,41.0,32.0,30.35,North,356,0.0,0.0,69,0.00,,,0.00,,2013-02-03 05:22:00,
2013-02-02 23:32:00,39.0,31.0,30.35,North,356,0.0,0.0,73,0.00,,,0.00,,2013-02-03 05:32:00,
2013-02-02 23:41:00,39.0,31.0,30.35,North,356,0.0,0.0,73,0.00,,,0.00,,2013-02-03 05:41:00,
2013-02-02 23:52:00,38.0,31.0,30.36,North,356,0.0,0.0,76,0.00,,,0.00,,2013-02-03 05:52:00,